Date String (YYYY-MM-DD hh:mm:ss) UTC,Instrument flags,Ambient pressure (hPa),Sample flow (lpm),Bypass flow (lpm),Sample temperature (°C),Ambient temperature (°C),ASC tube jacket temperature (°C),LED temperature (°C),Box temperature (°C),Sample RH (%),Span deviation,Mass concentration (μg/m³),Mass concentration (μg/m³),Mass concentration (μg/m³)
DateTimeUTC,F1_M11,P_M11,Q1_M11,Q2_M11,T1_M11,T2_M11,T3_M11,T4_M11,T5_M11,U1_M11,ZSPAN_M11,X0_M11,X2_M11,X1_M11
2022-12-15 14:00:00,,0820.2,4.95,0.00,22.2,20.7,00.0,31.1,24.0,07.6,0000.0,0008.65,0003.70,0003.29
2022-12-15 14:01:00,,0820.2,5.03,0.00,22.2,20.7,00.0,31.1,24.0,07.5,0000.0,0008.71,0003.68,0003.28
2022-12-15 14:02:00,,0820.2,4.97,0.00,22.2,21.3,00.0,31.0,24.1,07.4,0000.0,0008.62,0003.67,0003.28
2022-12-15 14:03:00,,0820.2,5.02,0.00,22.3,22.2,00.0,31.0,24.3,07.4,0000.0,0008.47,0003.66,0003.27
2022-12-15 14:04:00,,0820.2,4.98,0.00,22.4,22.3,00.0,31.1,24.4,07.5,0000.0,0007.90,0003.62,0003.27
2022-12-15 14:05:00,,0820.3,5.01,0.00,22.4,22.0,00.0,31.1,24.3,07.4,0000.0,0007.60,0003.59,0003.25
2022-12-15 14:06:00,,0820.2,5.01,0.00,22.4,21.6,00.0,31.2,24.3,07.4,0000.0,0007.68,0003.58,0003.25
2022-12-15 14:07:00,,0820.2,4.97,0.00,22.4,21.4,00.0,31.2,24.2,07.3,0000.0,0008.02,0003.58,0003.25
2022-12-15 14:08:00,,0820.3,5.01,0.00,22.4,21.2,00.0,31.2,24.2,07.3,0000.0,0007.94,0003.59,0003.26
2022-12-15 14:09:00,,0820.3,5.04,0.00,22.4,21.1,00.0,31.2,24.1,07.3,0000.0,0007.93,0003.60,0003.26
2022-12-15 14:10:00,,0820.2,4.96,0.00,22.3,21.0,00.0,31.2,24.1,07.3,0000.0,0007.95,0003.61,0003.26
2022-12-15 14:11:00,,0820.2,5.03,0.00,22.3,20.9,00.0,31.2,24.1,07.3,0000.0,0007.67,0003.63,0003.28
2022-12-15 14:12:00,,0820.2,4.95,0.00,22.3,20.8,00.0,31.2,24.1,07.4,0000.0,0007.45,0003.64,0003.30
2022-12-15 14:13:00,,0820.2,5.05,0.00,22.3,20.8,00.0,31.1,24.0,07.4,0000.0,0007.58,0003.66,0003.30
2022-12-15 14:14:00,,0820.2,4.96,0.00,22.3,20.8,00.0,31.1,24.0,07.5,0000.0,0007.92,0003.71,0003.31
2022-12-15 14:15:00,,0820.2,5.00,0.00,22.3,20.8,00.0,31.1,24.0,07.4,0000.0,0007.86,0003.72,0003.32
2022-12-15 14:16:00,,0820.2,4.99,0.00,22.2,20.7,00.0,31.1,24.0,07.4,0000.0,0007.83,0003.74,0003.34
2022-12-15 14:17:00,,0820.2,4.98,0.00,22.2,20.7,00.0,31.1,24.0,07.4,0000.0,0007.63,0003.75,0003.36
2022-12-15 14:18:00,,0820.2,5.03,0.00,22.2,20.7,00.0,31.1,23.9,07.4,0000.0,0007.46,0003.76,0003.37
2022-12-15 14:19:00,,0820.3,4.98,0.00,22.2,21.3,00.0,31.1,24.1,07.4,0000.0,0007.55,0003.76,0003.39
2022-12-15 14:20:00,,0820.2,5.02,0.00,22.3,22.2,00.0,31.0,24.3,07.3,0000.0,0007.57,0003.75,0003.38
2022-12-15 14:21:00,,0820.2,4.97,0.00,22.4,22.4,00.0,31.1,24.4,07.3,0000.0,0007.59,0003.76,0003.39
2022-12-15 14:22:00,,0820.3,5.02,0.00,22.4,22.0,00.0,31.1,24.4,07.3,0000.0,0007.62,0003.74,0003.38
2022-12-15 14:23:00,,0820.2,5.02,0.00,22.4,21.7,00.0,31.2,24.3,07.3,0000.0,0007.69,0003.77,0003.38
2022-12-15 14:24:00,,0820.2,4.97,0.00,22.4,21.5,00.0,31.2,24.3,07.3,0000.0,0007.69,0003.77,0003.38
2022-12-15 14:25:00,,0820.2,5.00,0.00,22.4,21.3,00.0,31.2,24.2,07.3,0000.0,0007.37,0003.75,0003.39
2022-12-15 14:26:00,,0820.2,5.02,0.00,22.4,21.2,00.0,31.2,24.2,07.4,0000.0,0007.31,0003.74,0003.39
2022-12-15 14:27:00,,0820.2,4.97,0.00,22.4,21.1,00.0,31.2,24.2,07.3,0000.0,0007.31,0003.75,0003.39
2022-12-15 14:28:00,,0820.2,5.05,0.00,22.4,21.0,00.0,31.2,24.1,07.3,0000.0,0007.25,0003.75,0003.39
2022-12-15 14:29:00,,0820.2,4.96,0.00,22.3,20.9,00.0,31.2,24.1,07.4,0000.0,0006.31,0003.74,0003.38
2022-12-15 14:30:00,,0820.2,5.04,0.00,22.3,20.9,00.0,31.2,24.1,07.4,0000.0,0006.24,0003.76,0003.38
2022-12-15 14:31:00,,0820.2,4.95,0.00,22.3,20.8,00.0,31.2,24.1,07.4,0000.0,0006.34,0003.80,0003.40
2022-12-15 14:32:00,,0820.2,5.03,0.00,22.3,20.8,00.0,31.2,24.0,07.4,0000.0,0006.44,0003.82,0003.41
2022-12-15 14:33:00,,0820.2,4.97,0.00,22.3,20.8,00.0,31.1,24.0,07.4,0000.0,0006.48,0003.86,0003.42
2022-12-15 14:34:00,,0820.2,5.00,0.00,22.3,20.8,00.0,31.1,24.0,07.4,0000.0,0006.60,0003.86,0003.42
2022-12-15 14:35:00,,0820.2,5.03,0.00,22.3,21.4,00.0,31.1,24.2,07.3,0000.0,0006.84,0003.86,0003.43
2022-12-15 14:36:00,,0820.2,4.99,0.00,22.4,22.3,00.0,31.1,24.4,07.3,0000.0,0006.98,0003.87,0003.43
2022-12-15 14:37:00,,0820.3,5.02,0.00,22.5,22.5,00.0,31.1,24.5,07.4,0000.0,0007.21,0003.91,0003.43
2022-12-15 14:38:00,,0820.2,4.97,0.00,22.5,22.1,00.0,31.2,24.5,07.4,0000.0,0007.19,0003.89,0003.44
2022-12-15 14:39:00,,0820.3,5.02,0.00,22.5,21.8,00.0,31.2,24.4,07.4,0000.0,0007.59,0003.89,0003.45
2022-12-15 14:40:00,,0820.2,5.01,0.00,22.5,21.5,00.0,31.2,24.3,07.4,0000.0,0007.83,0003.91,0003.46
2022-12-15 14:41:00,,0820.3,4.97,0.00,22.5,21.3,00.0,31.3,24.3,07.4,0000.0,0008.16,0003.93,0003.46
2022-12-15 14:42:00,,0820.3,5.01,0.00,22.5,21.2,00.0,31.2,24.2,07.3,0000.0,0008.30,0003.90,0003.45
2022-12-15 14:43:00,,0820.2,5.02,0.00,22.4,21.1,00.0,31.2,24.2,07.3,0000.0,0008.30,0003.89,0003.44
2022-12-15 14:44:00,,0820.3,4.97,0.00,22.4,21.0,00.0,31.2,24.2,07.4,0000.0,0008.28,0003.88,0003.43
2022-12-15 14:45:00,,0820.3,5.04,0.00,22.4,21.0,00.0,31.2,24.1,07.3,0000.0,0008.22,0003.85,0003.41
2022-12-15 14:46:00,,0820.4,4.96,0.00,22.4,20.9,00.0,31.2,24.1,07.4,0000.0,0008.23,0003.84,0003.40
2022-12-15 14:47:00,,0820.4,5.04,0.00,22.4,20.9,00.0,31.2,24.1,07.4,0000.0,0008.08,0003.79,0003.40
2022-12-15 14:48:00,,0820.5,4.95,0.00,22.3,20.9,00.0,31.2,24.1,07.3,0000.0,0008.00,0003.76,0003.39
2022-12-15 14:49:00,,0820.6,5.03,0.00,22.3,20.8,00.0,31.2,24.1,07.4,0000.0,0010.74,0004.19,0003.42
2022-12-15 14:50:00,,0820.6,4.98,0.00,22.3,20.8,00.0,31.2,24.0,07.5,0000.0,0012.36,0004.39,0003.42
2022-12-15 14:51:00,,0820.6,5.00,0.00,22.3,20.8,00.0,31.2,24.0,07.5,0000.0,0012.88,0004.41,0003.41
2022-12-15 14:52:00,,0820.6,5.01,0.00,22.3,20.8,00.0,31.2,24.0,07.4,0000.0,0014.46,0004.41,0003.40
2022-12-15 14:53:00,,0820.7,4.99,0.00,22.3,20.7,00.0,31.2,24.0,07.4,0000.0,0014.56,0004.39,0003.38
2022-12-15 14:54:00,,0820.6,5.05,0.00,22.3,21.2,00.0,31.1,24.1,07.4,0000.0,0014.90,0004.44,0003.38
2022-12-15 14:55:00,,0820.6,4.96,0.00,22.4,22.1,00.0,31.1,24.3,07.4,0000.0,0014.88,0004.42,0003.39
2022-12-15 14:56:00,,0820.7,5.02,0.00,22.5,22.4,00.0,31.1,24.5,07.3,0000.0,0015.15,0004.41,0003.39
2022-12-15 14:57:00,,0820.7,4.98,0.00,22.5,22.1,00.0,31.2,24.4,07.3,0000.0,0015.40,0004.42,0003.40
2022-12-15 14:58:00,,0820.8,5.02,0.00,22.5,21.8,00.0,31.2,24.3,07.4,0000.0,0016.49,0004.48,0003.40
2022-12-15 14:59:00,,0820.8,5.00,0.00,22.5,21.5,00.0,31.2,24.3,07.6,0000.0,0017.36,0004.62,0003.41
